FDX1260 KCVG-KMEM

Flight info

Callsign FDX1260
Flight time N/A
Altitude 32000
Route CHCLL6 RAMRD BLUZZ5
Aircraft B763/H-SDE3FGHIM3RWXY/LB1

Departure

Time 2026-05-05 12:32
Airport Cincinnati Northern Kentucky International Airport (KCVG)

Arrival

Time N/A
Airport Memphis International Airport (KMEM)
Time Latitude Longitude Altitude Speed Heading
2026-05-05 12:10 39.05845 -84.66494 873 ft 0 kts 90°
2026-05-05 12:17 39.05846 -84.66536 874 ft 2 kts 90°
2026-05-05 12:17 39.05846 -84.66555 874 ft 2 kts 90°
2026-05-05 12:18 39.05846 -84.66575 874 ft 2 kts 90°
2026-05-05 12:18 39.05847 -84.66594 874 ft 2 kts 103°
2026-05-05 12:18 39.05853 -84.66611 874 ft 2 kts 128°
2026-05-05 12:18 39.05863 -84.66624 874 ft 2 kts 149°
2026-05-05 12:19 39.05877 -84.66631 874 ft 2 kts 171°
2026-05-05 12:19 39.05884 -84.66631 874 ft 1 kts 181°
2026-05-05 12:19 39.05887 -84.66631 874 ft 0 kts 180°
2026-05-05 12:23 39.05886 -84.66631 874 ft 1 kts 180°
2026-05-05 12:23 39.05847 -84.66631 874 ft 9 kts 180°
2026-05-05 12:23 39.05757 -84.66632 875 ft 16 kts 180°
2026-05-05 12:24 39.05621 -84.66634 876 ft 21 kts 180°
2026-05-05 12:24 39.05471 -84.66635 877 ft 21 kts 179°
2026-05-05 12:24 39.05328 -84.66632 877 ft 20 kts 179°
2026-05-05 12:24 39.05228 -84.66608 876 ft 11 kts 131°
2026-05-05 12:25 39.05217 -84.66514 875 ft 11 kts 90°
2026-05-05 12:25 39.05216 -84.66399 875 ft 14 kts 90°
2026-05-05 12:25 39.05215 -84.66264 875 ft 15 kts 90°
2026-05-05 12:25 39.05215 -84.66132 875 ft 14 kts 89°
2026-05-05 12:26 39.05216 -84.65978 876 ft 20 kts 90°
2026-05-05 12:26 39.05234 -84.65825 878 ft 12 kts 37°
2026-05-05 12:26 39.05313 -84.65815 878 ft 11 kts 359°
2026-05-05 12:26 39.05394 -84.65815 877 ft 11 kts
2026-05-05 12:27 39.05436 -84.65761 878 ft 8 kts 86°
2026-05-05 12:27 39.05436 -84.65685 879 ft 8 kts 89°
2026-05-05 12:27 39.05437 -84.65593 880 ft 11 kts 90°
2026-05-05 12:27 39.05436 -84.65498 881 ft 10 kts 90°
2026-05-05 12:28 39.05436 -84.65413 882 ft 9 kts 90°
2026-05-05 12:28 39.05436 -84.65335 883 ft 8 kts 90°
2026-05-05 12:28 39.05436 -84.65267 884 ft 7 kts 90°
2026-05-05 12:28 39.05436 -84.65208 885 ft 6 kts 90°
2026-05-05 12:29 39.05436 -84.65139 886 ft 9 kts 90°
2026-05-05 12:29 39.05437 -84.65036 887 ft 13 kts 87°
2026-05-05 12:29 39.05502 -84.64983 888 ft 13 kts
2026-05-05 12:29 39.05572 -84.64947 888 ft 10 kts 73°
2026-05-05 12:30 39.05574 -84.64861 888 ft 9 kts 90°
2026-05-05 12:30 39.05574 -84.64774 889 ft 10 kts 90°
2026-05-05 12:30 39.05559 -84.64683 890 ft 10 kts 129°
2026-05-05 12:30 39.05516 -84.64667 891 ft 0 kts 179°
2026-05-05 12:31 39.05507 -84.64667 891 ft 8 kts 179°
2026-05-05 12:31 39.05250 -84.64670 893 ft 66 kts 180°
2026-05-05 12:31 39.04605 -84.64672 899 ft 119 kts 180°
2026-05-05 12:31 39.03615 -84.64672 932 ft 163 kts 180°
2026-05-05 12:32 39.02418 -84.64672 1350 ft 181 kts 182°
2026-05-05 12:32 39.01077 -84.64583 1792 ft 207 kts 173°
2026-05-05 12:32 38.99593 -84.64123 2271 ft 232 kts 171°
2026-05-05 12:32 38.97983 -84.63617 2977 ft 248 kts 172°
2026-05-05 12:33 38.96275 -84.63076 3870 ft 257 kts 173°
2026-05-05 12:33 38.94536 -84.62502 4870 ft 262 kts 171°
2026-05-05 12:33 38.92762 -84.61902 5749 ft 270 kts 171°
2026-05-05 12:33 38.90951 -84.61286 6741 ft 274 kts 170°
2026-05-05 12:34 38.89090 -84.60655 7680 ft 279 kts 170°
2026-05-05 12:34 38.87237 -84.60025 8664 ft 281 kts 170°
2026-05-05 12:34 38.85327 -84.59384 9571 ft 285 kts 172°
2026-05-05 12:34 38.83390 -84.59290 10387 ft 282 kts 195°
2026-05-05 12:35 38.81548 -84.60267 10911 ft 293 kts 217°
2026-05-05 12:35 38.79945 -84.61968 11521 ft 308 kts 223°
2026-05-05 12:35 38.78273 -84.63826 12112 ft 325 kts 223°
2026-05-05 12:35 38.76568 -84.65739 12967 ft 333 kts 223°
2026-05-05 12:36 38.74823 -84.67698 13979 ft 336 kts 223°
2026-05-05 12:36 38.73050 -84.69699 14728 ft 346 kts 224°
2026-05-05 12:36 38.71239 -84.71741 15640 ft 350 kts 224°
2026-05-05 12:36 38.69394 -84.73823 16379 ft 358 kts 224°
2026-05-05 12:37 38.67514 -84.75944 17202 ft 363 kts 224°
2026-05-05 12:37 38.65625 -84.78075 17912 ft 370 kts 224°
2026-05-05 12:37 38.63689 -84.80257 18675 ft 375 kts 225°
2026-05-05 12:37 38.61730 -84.82463 19460 ft 378 kts 225°
2026-05-05 12:38 38.59747 -84.84696 20195 ft 383 kts 224°
2026-05-05 12:38 38.57724 -84.86971 20920 ft 388 kts 225°
2026-05-05 12:38 38.55696 -84.89252 21592 ft 393 kts 225°
2026-05-05 12:38 38.53635 -84.91565 22283 ft 397 kts 225°
2026-05-05 12:39 38.51553 -84.93902 22923 ft 402 kts 225°
2026-05-05 12:39 38.49447 -84.96264 23599 ft 405 kts 225°
2026-05-05 12:39 38.47352 -84.98630 24284 ft 407 kts 226°
2026-05-05 12:39 38.45268 -85.01065 24987 ft 409 kts 226°
2026-05-05 12:40 38.43134 -85.03548 25645 ft 412 kts 227°
2026-05-05 12:40 38.41042 -85.05980 26331 ft 413 kts 227°
2026-05-05 12:40 38.38903 -85.08467 26929 ft 416 kts 227°
2026-05-05 12:40 38.36771 -85.10942 27537 ft 419 kts 227°
2026-05-05 12:41 38.34605 -85.13454 28158 ft 421 kts 227°
2026-05-05 12:41 38.32450 -85.15953 28693 ft 424 kts 227°
2026-05-05 12:41 38.30257 -85.18492 29300 ft 425 kts 227°
2026-05-05 12:41 38.28055 -85.21039 29867 ft 427 kts 228°
2026-05-05 12:42 38.25884 -85.23548 30416 ft 429 kts 228°
2026-05-05 12:42 38.23651 -85.26124 31029 ft 427 kts 229°
2026-05-05 12:42 38.21468 -85.28636 31723 ft 425 kts 230°
2026-05-05 12:42 38.19287 -85.31155 31881 ft 426 kts 230°
2026-05-05 12:43 38.14917 -85.36186 31890 ft 419 kts 231°
2026-05-05 12:43 38.10595 -85.41161 31895 ft 419 kts 230°
2026-05-05 12:44 38.06690 -85.46431 31898 ft 405 kts 240°
2026-05-05 12:44 38.03192 -85.52135 31908 ft 412 kts 240°
2026-05-05 12:45 37.99662 -85.57833 31897 ft 410 kts 240°
2026-05-05 12:45 37.96165 -85.63459 31898 ft 405 kts 240°
2026-05-05 12:46 37.92647 -85.69110 31908 ft 410 kts 240°
2026-05-05 12:46 37.89130 -85.74744 31898 ft 408 kts 240°
2026-05-05 12:47 37.85621 -85.80354 31898 ft 407 kts 240°
2026-05-05 12:47 37.83276 -85.84100 31897 ft 407 kts 240°